SL-6 DEB, 48265

Orbit data source: Space-Track

SL-6 DEB, 48265 is space debris in HEO originally from a launch on Wed, 23 Dec 1981 UTC launched from the Tyuratam Missile And Space Complex (TTMTR). Debris objects in space refer to the collection of defunct objects orbiting the Earth. Examples of debris include non-operational satellites, rocket bodies, and fragments generated from explosions, collisions, or faulty payload assembly.

Loading next visibility...
Identifier
48265, 1981-123E
Orbit
HEO
Country
Flag of CISCIS
Related business
Manufacturer
RKKE
Mission
Spacecraft
Bus & Motor
Unknown
Mass
Unknown
Launch date (UTC)
1981-12-23 (44 years ago)
Launch vehicle
Unknown
Launch site
Tyuratam Missile And Space Complex (TTMTR)
Object type
Payload
Rocket body
Debris
Shape & HBR
Unknown shape, 1.1 m
Radar Cross Section
Medium (>0.1 m² and <1 m²)

Expand to show TLE details & history
Last TLE update: 1 week ago

TLE from 1 week ago
0 SL-6 DEB
1 48265U 81123E   26164.30442741 -.00000013  00000-0  00000-0 0  9999
2 48265  62.3129  63.4954 7129285 276.9657 341.5643  2.19416933100642
Epoch: 2026-06-13T07:18Z
TLE epoch observation values (Epoch: 2026-06-13T07:18:22.528Z)
Latitude
-0.52819°
Longitude
-127.40287°
Altitude
7,013.501 km
Speed
6.603 km/s
True Right ascension
16h 15m 14s
True Declination
0° 31' 35"
Sunlit
Object was in partial shadow at epoch
Visualization orbit readout
Latitude
Unknown
Longitude
Unknown
Altitude
Unknown
Speed
Unknown
Apparent Right ascension
Unknown
Apparent Declination
Unknown
Sunlit
N/A
Visualization observer readout
Local Sidereal Time
21:25:42
Azimuth
Unknown
Elevation
Unknown
Doppler factor
Unknown
Orbital elements
Apogee altitude
36,471.351 km
Perigee altitude
803.054 km
Semi-major axis
25,015.339 km
Eccentricity
0.71293
Inclination
62.3129°
RAAN
63.4954°
Arg. of periapsis
276.9657°
True anomaly
263.21914°
Mean anomaly
341.5643°
Eccentric anomaly
310.50632°
Mean motion
0.54857 °/min
Orbital period
656.25 mins
BSTAR
0
Loading maneuver chart data...
Computing Atmospheric mass density...
Loading historical data...
Loading historical data...
Loading historical data...
Loading historical data...
Loading historical data...
Loading historical data...
Loading historical data...
Other satellites on launch #123 in the year 1981 (1981-12-23 UTC)

Documentation

Showing up to 5 results
|